Odessa, TX

3:48 AM CDT on October 21, 2017 (GMT -0500)
Odessa-Schlemeyer

Weather History for KODO - May, 2013

Change the Weather History Date:

Friday, May 17, 2013

  Actual Average (KMAF) Record (KMAF)
Temperature  
Mean Temperature 82 °F -  
Max Temperature 100 °F 87 °F 103 °F (2013)
Min Temperature 64 °F 59 °F 47 °F (1986)
Cooling Degree Days 17    
Growing Degree Days 32 (Base 50)    
Moisture  
Dew Point 25 °F    
Average Humidity 12    
Maximum Humidity 23    
Minimum Humidity 6    
Precipitation  
Precipitation 0.00 in - - ()
Sea Level Pressure  
Sea Level Pressure 29.69 in    
Wind  
Wind Speed 8 mph (SSW)    
Max Wind Speed 17 mph    
Max Gust Speed 24 mph    
Visibility 10 miles    
Events      
Averages and records for this station are not official NWS values.
T = Trace of Precipitation, MM = Missing Value Source: NWS Daily Summary

Daily Weather History Graph

Daily Weather History Graph

Search for Another Location

Airport or City:

Trip Planner

Search our weather history database for the weather conditions in past years. The results will help you decide how hot, cold, wet, or windy it might be!

Date:

Astronomy

May. 17, 2013 Rise Set
Actual Time 6:50 AM CDT 8:41 PM CDT
Civil Twilight 6:23 AM CDT 9:08 PM CDT
Nautical Twilight 5:51 AM CDT 9:41 PM CDT
Astronomical Twilight 5:16 AM CDT 10:15 PM CDT
Moon 1:15 PM CDT (5/17) 1:44 AM CDT (5/17)
Length of Visible Light 14h 44m
Length of Day
13h 50m
Waxing Crescent, 45% of the Moon is Illuminated
May 17
Waxing Crescent
May 17
First Quarter
May 24
Full
May 31
Last Quarter
Jun 8
New

Hourly Weather History & Observations

Time (CDT) Temp. Dew Point Humidity Pressure Visibility Wind Dir Wind Speed Gust Speed Precip Events Conditions
12:53 AM 75.0 °F 19.0 °F 12% 29.67 in 10.0 mi West 6.9 mph - N/A   Clear
1:53 AM 75.9 °F 21.0 °F 13% 29.66 in 10.0 mi West 6.9 mph - N/A   Clear
2:53 AM 75.9 °F 21.0 °F 13% 29.66 in 10.0 mi WSW 6.9 mph - N/A   Clear
3:53 AM 75.9 °F 21.0 °F 13% 29.65 in 10.0 mi West 8.1 mph - N/A   Clear
4:53 AM 72.0 °F 21.9 °F 15% 29.67 in 10.0 mi West 4.6 mph - N/A   Clear
5:53 AM 70.0 °F 23.0 °F 17% 29.68 in 10.0 mi Calm Calm - N/A   Clear
6:53 AM 64.0 °F 23.0 °F 21% 29.71 in 10.0 mi Calm Calm - N/A   Clear
7:53 AM 68.0 °F 26.1 °F 21% 29.74 in 10.0 mi South 4.6 mph - N/A   Clear
8:53 AM 75.9 °F 28.9 °F 18% 29.76 in 10.0 mi South 6.9 mph - N/A   Clear
9:53 AM 84.0 °F 25.0 °F 12% 29.76 in 10.0 mi SW 8.1 mph - N/A   Clear
10:53 AM 90.0 °F 23.0 °F 9% 29.75 in 10.0 mi SSW 8.1 mph - N/A   Clear
11:53 AM 93.9 °F 19.9 °F 7% 29.75 in 10.0 mi SW 11.5 mph 16.1 mph N/A   Clear
12:53 PM 97.0 °F 21.0 °F 6% 29.74 in 10.0 mi Variable 6.9 mph - N/A   Clear
2:53 PM 99.0 °F 21.9 °F 6% 29.70 in 10.0 mi SSW 8.1 mph 19.6 mph N/A   Clear
3:53 PM 100.9 °F 23.0 °F 6% 29.68 in 10.0 mi SSE 16.1 mph 21.9 mph N/A   Clear
4:53 PM 100.0 °F 23.0 °F 6% 29.66 in 10.0 mi SW 12.7 mph 23.0 mph N/A   Clear
5:53 PM 97.0 °F 26.1 °F 8% 29.66 in 10.0 mi South 12.7 mph - N/A   Clear
6:53 PM 99.0 °F 27.0 °F 8% 29.65 in 10.0 mi SSE 8.1 mph - N/A   Clear
7:53 PM 96.1 °F 25.0 °F 8% 29.65 in 10.0 mi South 16.1 mph - N/A   Clear
8:53 PM 93.0 °F 28.9 °F 10% 29.65 in 10.0 mi SSE 12.7 mph - N/A   Clear
9:53 PM 90.0 °F 30.9 °F 12% 29.67 in 10.0 mi SSE 16.1 mph - N/A   Clear
10:53 PM 88.0 °F 37.9 °F 17% 29.68 in 10.0 mi South 17.3 mph 23.0 mph N/A   Clear
11:53 PM 84.9 °F 43.0 °F 23% 29.70 in 10.0 mi South 17.3 mph 24.2 mph N/A   Clear